| time (UTC) | temp C | wind direction | speed KPH | gust KPH | rain 1hr cm | rain 24hr cm | rain mn cm | humidity % | barometer mb |
| 20260508064536 | 8 | 314 | 1.6 | 9.7 | 0.00 | 0.00 | 0.00 | 87 | 1017.0 |
| 20260508063030 | 8 | 296 | 3.2 | 6.4 | 0.00 | 0.00 | 0.00 | 87 | 1016.9 |
| 20260508061628 | 8 | 331 | 3.2 | 11.3 | 0.00 | 0.00 | 0.00 | 86 | 1016.9 |
| 20260508060027 | 8 | 311 | 4.8 | 9.7 | 0.00 | 0.00 | 0.00 | 85 | 1016.7 |
| 20260508054526 | 8 | 329 | 4.8 | 11.3 | 0.00 | 0.00 | 0.00 | 85 | 1016.7 |
| 20260508053022 | 8 | 296 | 4.8 | 12.9 | 0.00 | 0.00 | 0.00 | 85 | 1016.5 |
| 20260508051520 | 8 | 72 | 3.2 | 11.3 | 0.00 | 0.00 | 0.00 | 85 | 1016.3 |
| 20260508050021 | 8 | 303 | 3.2 | 9.7 | 0.00 | 0.00 | 0.00 | 86 | 1016.4 |
| 20260508044516 | 8 | 346 | 4.8 | 11.3 | 0.00 | 0.00 | 0.00 | 87 | 1016.2 |
| 20260508043014 | 8 | 269 | 1.6 | 6.4 | 0.00 | 0.00 | 0.00 | 88 | 1016.2 |
| 20260508041511 | 8 | 279 | 1.6 | 6.4 | 0.00 | 0.00 | 0.00 | 88 | 1016.1 |
| 20260508040018 | 8 | 314 | 1.6 | 8.0 | 0.00 | 0.03 | 0.00 | 87 | 1016.2 |
| 20260508034512 | 8 | 314 | 3.2 | 8.0 | 0.00 | 0.03 | 0.00 | 86 | 1016.1 |
| 20260508033005 | 8 | 28 | 3.2 | 9.7 | 0.00 | 0.03 | 0.00 | 85 | 1016.2 |
| 20260508031511 | 8 | 314 | 3.2 | 11.3 | 0.00 | 0.03 | 0.00 | 83 | 1016.0 |
| 20260508030103 | 9 | 331 | 3.2 | 11.3 | 0.00 | 0.03 | 0.00 | 82 | 1015.9 |
| 20260508024600 | 9 | 4 | 6.4 | 11.3 | 0.00 | 0.03 | 0.00 | 81 | 1015.7 |
| 20260508023054 | 9 | 46 | 3.2 | 9.7 | 0.00 | 0.03 | 0.00 | 81 | 1015.7 |
| 20260508021553 | 9 | 346 | 1.6 | 9.7 | 0.00 | 0.03 | 0.00 | 80 | 1015.8 |
| 20260508020052 | 9 | 35 | 1.6 | 11.3 | 0.00 | 0.03 | 0.00 | 80 | 1015.6 |
| 20260508014551 | 9 | 343 | 3.2 | 12.9 | 0.00 | 0.03 | 0.00 | 80 | 1015.7 |
| 20260508013049 | 9 | 1 | 6.4 | 14.5 | 0.00 | 0.03 | 0.00 | 79 | 1015.7 |
| 20260508011550 | 9 | 44 | 4.8 | 12.9 | 0.00 | 0.03 | 0.00 | 79 | 1015.7 |
| 20260508010047 | 9 | 20 | 1.6 | 11.3 | 0.00 | 0.03 | 0.00 | 79 | 1015.6 |
| 20260508004546 | 9 | 51 | 4.8 | 12.9 | 0.00 | 0.03 | 0.00 | 79 | 1015.7 |
| 20260508003044 | 10 | 327 | 3.2 | 8.0 | 0.00 | 0.03 | 0.00 | 79 | 1015.6 |
| 20260508001546 | 10 | 353 | 4.8 | 11.3 | 0.00 | 0.03 | 0.00 | 79 | 1015.7 |
| 20260508000041 | 10 | 8 | 4.8 | 11.3 | 0.00 | 0.03 | 0.00 | 79 | 1015.5 |
| 20260507234542 | 10 | 60 | 1.6 | 11.3 | 0.00 | 0.03 | 0.00 | 79 | 1015.5 |
| 20260507233037 | 10 | 39 | 3.2 | 8.0 | 0.00 | 0.03 | 0.00 | 79 | 1015.5 |
| 20260507231534 | 10 | 342 | 6.4 | 14.5 | 0.00 | 0.03 | 0.00 | 79 | 1015.5 |
| 20260507230032 | 10 | 1 | 1.6 | 12.9 | 0.00 | 0.03 | 0.00 | 79 | 1015.6 |
| 20260507224530 | 10 | 342 | 6.4 | 11.3 | 0.00 | 0.03 | 0.00 | 79 | 1015.3 |
| 20260507223028 | 10 | 314 | 1.6 | 9.7 | 0.00 | 0.03 | 0.00 | 78 | 1015.2 |
| 20260507221526 | 10 | 319 | 6.4 | 12.9 | 0.00 | 0.03 | 0.00 | 78 | 1015.1 |
| 20260507220022 | 10 | 355 | 6.4 | 11.3 | 0.00 | 0.03 | 0.03 | 79 | 1015.0 |
| 20260507214521 | 10 | 324 | 1.6 | 9.7 | 0.00 | 0.03 | 0.03 | 79 | 1015.0 |
| 20260507213020 | 11 | 352 | 1.6 | 8.0 | 0.00 | 0.03 | 0.03 | 78 | 1014.7 |
| 20260507211517 | 11 | 346 | 4.8 | 11.3 | 0.00 | 0.03 | 0.03 | 77 | 1014.7 |
| 20260507210016 | 11 | 8 | 3.2 | 8.0 | 0.00 | 0.03 | 0.03 | 76 | 1014.8 |
| 20260507204515 | 11 | 322 | 1.6 | 6.4 | 0.00 | 0.03 | 0.03 | 76 | 1014.7 |
| 20260507203014 | 11 | 321 | 3.2 | 6.4 | 0.00 | 0.03 | 0.03 | 76 | 1014.7 |
| 20260507201514 | 11 | 15 | 1.6 | 6.4 | 0.00 | 0.03 | 0.03 | 75 | 1014.7 |
| 20260507200013 | 11 | 321 | 1.6 | 6.4 | 0.00 | 0.03 | 0.03 | 75 | 1014.6 |
| 20260507194512 | 11 | 32 | 3.2 | 8.0 | 0.00 | 0.03 | 0.03 | 75 | 1014.5 |
| 20260507193011 | 11 | 321 | 1.6 | 6.4 | 0.00 | 0.03 | 0.03 | 75 | 1014.6 |
| 20260507191508 | 11 | 269 | 4.8 | 9.7 | 0.00 | 0.03 | 0.03 | 74 | 1014.2 |
| 20260507190008 | 11 | 1 | 4.8 | 9.7 | 0.00 | 0.03 | 0.03 | 75 | 1014.2 |
| 20260507184507 | 11 | 30 | 1.6 | 11.3 | 0.00 | 0.03 | 0.03 | 75 | 1014.1 |
| 20260507183008 | 11 | 351 | 3.2 | 12.9 | 0.00 | 0.03 | 0.03 | 76 | 1014.1 |
| 20260507181503 | 11 | 283 | 3.2 | 9.7 | 0.00 | 0.03 | 0.03 | 75 | 1013.9 |
| 20260507180003 | 12 | 331 | 8.0 | 12.9 | 0.00 | 0.03 | 0.03 | 75 | 1013.7 |
| 20260507174600 | 12 | 49 | 4.8 | 11.3 | 0.00 | 0.03 | 0.03 | 74 | 1013.4 |
| 20260507173057 | 12 | 6 | 4.8 | 14.5 | 0.00 | 0.03 | 0.03 | 74 | 1013.1 |
| 20260507171554 | 12 | 15 | 6.4 | 12.9 | 0.00 | 0.03 | 0.03 | 74 | 1012.8 |
| 20260507170055 | 12 | 333 | 4.8 | 17.7 | 0.00 | 0.03 | 0.03 | 74 | 1012.6 |
| 20260507164612 | 12 | 340 | 8.0 | 16.1 | 0.00 | 0.03 | 0.03 | 74 | 1012.6 |
| 20260507163052 | 12 | 356 | 6.4 | 14.5 | 0.00 | 0.03 | 0.03 | 73 | 1012.4 |
| 20260507161555 | 12 | 320 | 4.8 | 12.9 | 0.00 | 0.03 | 0.03 | 74 | 1012.5 |
| 20260507160052 | 13 | 319 | 4.8 | 16.1 | 0.00 | 0.03 | 0.03 | 73 | 1012.6 |
| 20260507154549 | 13 | 291 | 6.4 | 12.9 | 0.00 | 0.03 | 0.03 | 72 | 1012.7 |
| 20260507153049 | 13 | 307 | 3.2 | 16.1 | 0.00 | 0.03 | 0.03 | 73 | 1012.7 |
| 20260507151546 | 13 | 288 | 6.4 | 14.5 | 0.00 | 0.03 | 0.03 | 73 | 1012.6 |
| 20260507150048 | 13 | 46 | 3.2 | 14.5 | 0.00 | 0.03 | 0.03 | 72 | 1012.6 |
| 20260507144544 | 13 | 250 | 6.4 | 17.7 | 0.00 | 0.03 | 0.03 | 72 | 1012.4 |
| 20260507143057 | 13 | 312 | 4.8 | 17.7 | 0.00 | 0.03 | 0.03 | 72 | 1012.3 |
| 20260507141600 | 13 | 330 | 4.8 | 14.5 | 0.00 | 0.03 | 0.03 | 73 | 1012.2 |
| 20260507140040 | 13 | 333 | 6.4 | 16.1 | 0.00 | 0.03 | 0.03 | 74 | 1012.1 |
| 20260507134540 | 13 | 348 | 6.4 | 16.1 | 0.00 | 0.03 | 0.03 | 73 | 1012.2 |
| 20260507133040 | 13 | 301 | 8.0 | 16.1 | 0.00 | 0.03 | 0.03 | 75 | 1012.2 |
| 20260507131543 | 13 | 345 | 6.4 | 14.5 | 0.00 | 0.03 | 0.03 | 75 | 1012.0 |
| 20260507130041 | 13 | 328 | 6.4 | 14.5 | 0.00 | 0.03 | 0.03 | 77 | 1011.8 |
| 20260507124536 | 13 | 336 | 8.0 | 17.7 | 0.00 | 0.03 | 0.03 | 77 | 1011.9 |
| 20260507123033 | 13 | 315 | 6.4 | 14.5 | 0.00 | 0.03 | 0.03 | 76 | 1011.9 |
| 20260507121532 | 12 | 1 | 6.4 | 14.5 | 0.00 | 0.03 | 0.03 | 79 | 1012.0 |
| 20260507120033 | 12 | 307 | 8.0 | 16.1 | 0.00 | 0.03 | 0.03 | 79 | 1012.1 |
| 20260507114531 | 13 | 284 | 8.0 | 14.5 | 0.00 | 0.03 | 0.03 | 79 | 1011.9 |
| 20260507113028 | 12 | 269 | 4.8 | 11.3 | 0.00 | 0.03 | 0.03 | 80 | 1011.6 |
| 20260507111528 | 12 | 286 | 6.4 | 11.3 | 0.00 | 0.03 | 0.03 | 82 | 1011.6 |
| 20260507110027 | 12 | 269 | 4.8 | 9.7 | 0.00 | 0.03 | 0.03 | 84 | 1011.3 |
| 20260507104525 | 11 | 296 | 8.0 | 12.9 | 0.00 | 0.03 | 0.03 | 86 | 1011.3 |
| 20260507103021 | 11 | 315 | 4.8 | 12.9 | 0.00 | 0.03 | 0.03 | 87 | 1011.3 |
| 20260507101520 | 11 | 346 | 4.8 | 11.3 | 0.00 | 0.03 | 0.03 | 87 | 1010.9 |
| 20260507100016 | 11 | 297 | 3.2 | 12.9 | 0.00 | 0.03 | 0.03 | 87 | 1010.9 |
| 20260507094514 | 11 | 348 | 6.4 | 11.3 | 0.00 | 0.03 | 0.03 | 87 | 1010.6 |
| 20260507093012 | 11 | 328 | 6.4 | 14.5 | 0.00 | 0.03 | 0.03 | 86 | 1010.6 |
| 20260507091513 | 11 | 324 | 8.0 | 11.3 | 0.00 | 0.03 | 0.03 | 86 | 1010.3 |
| 20260507090006 | 11 | 290 | 4.8 | 17.7 | 0.00 | 0.03 | 0.03 | 86 | 1010.2 |
| 20260507084503 | 11 | 310 | 4.8 | 14.5 | 0.00 | 0.03 | 0.03 | 85 | 1009.9 |
| 20260507083100 | 11 | 317 | 6.4 | 12.9 | 0.00 | 0.03 | 0.03 | 85 | 1009.7 |
| 20260507081601 | 12 | 324 | 3.2 | 14.5 | 0.00 | 0.03 | 0.03 | 85 | 1009.6 |
| 20260507080112 | 12 | 314 | 6.4 | 11.3 | 0.00 | 0.03 | 0.03 | 85 | 1009.5 |
| 20260507074556 | 12 | 327 | 3.2 | 11.3 | 0.00 | 0.03 | 0.03 | 85 | 1009.1 |
| 20260507073051 | 12 | 331 | 6.4 | 16.1 | 0.00 | 0.03 | 0.03 | 85 | 1009.0 |
| 20260507071548 | 12 | 281 | 6.4 | 14.5 | 0.00 | 0.03 | 0.03 | 86 | 1008.8 |
| 20260507070047 | 12 | 352 | 6.4 | 16.1 | 0.00 | 0.03 | 0.03 | 85 | 1008.5 |